Probability
0 0 0 0 0 0 0 0 0 0 0 0 0 0 0 0 0 3 6 6 6 10 10 6 13 13 13 10 13 16 23 23 16 13 16 19 10 13 16 10 23 19 13 13
0 0 0 0 0 0 0 0 0 0 0 0 0 0 0 0 0 0 6 6 6 6 3 6 10 13 13 16 16 26 19 19 23 26 26 19 13 19 16 13 19 19 19 19
0 0 0 0 0 0 0 0 0 0 0 0 0 0 0 0 0 6 6 10 10 13 10 13 16 16 16 23 29 26 26 26 29 35 26 19 19 26 32 29 23 29 19 23
0 0 0 0 0 0 0 0 0 0 0 0 0 0 0 0 0 0 3 3 6 10 6 10 16 16 16 23 32 32 32 32 35 39 39 32 29 29 32 29 32 29 23 23
0 0 0 0 0 0 0 0 0 0 0 0 0 0 0 0 0 0 3 3 0 3 3 13 13 16 19 29 29 42 39 35 45 48 48 35 29 26 29 26 29 39 26 26
0 0 0 0 0 0 0 0 0 0 0 0 0 0 0 0 0 0 3 3 3 3 10 13 13 13 29 29 32 35 32 35 42 42 39 32 32 32 35 29 42 35 29 29
0 0 0 0 0 0 0 0 0 0 0 0 0 0 0 0 3 3 3 3 6 6 6 13 16 16 29 29 32 35 42 35 42 48 45 42 42 39 29 32 32 35 32 29
0 0 0 0 0 0 0 0 0 0 0 0 0 0 0 3 3 3 3 3 6 6 10 13 10 16 26 26 32 32 39 42 42 48 45 48 42 35 35 39 29 32 32 32
0 0 0 0 0 0 0 0 0 0 0 0 0 3 3 3 6 6 3 3 3 3 3 6 16 16 32 39 35 42 42 42 39 39 45 58 55 48 42 42 42 35 39 32
0 0 0 0 0 0 0 0 0 0 0 0 0 3 6 6 6 3 3 6 10 10 10 16 19 19 29 32 29 39 42 42 45 42 45 52 55 48 45 45 45 48 39 45
0 0 0 0 0 0 0 0 0 0 0 0 0 0 6 3 3 3 10 10 10 10 13 13 19 23 29 39 35 39 45 42 42 45 45 48 52 48 52 52 52 48 48 42
0 0 0 0 0 0 0 0 0 0 0 0 0 0 3 3 3 10 10 13 13 13 10 13 13 13 26 32 32 42 42 45 45 48 45 42 39 42 52 48 48 48 42 45
0 0 0 0 0 0 0 0 0 0 0 0 0 3 6 3 6 10 16 16 10 13 10 13 10 10 19 29 32 32 32 45 48 48 48 48 42 45 45 45 48 48 45 35
0 0 0 0 0 0 0 0 0 0 0 0 0 0 3 6 10 13 13 10 10 10 10 10 10 6 16 16 32 32 32 45 48 45 48 48 48 45 45 42 39 35 39 42
0 0 0 0 0 0 0 0 0 0 0 0 0 0 0 3 6 13 13 13 13 6 13 13 13 10 16 16 19 26 29 39 45 42 42 45 45 42 45 42 48 45 45 39
0 0 0 0 0 0 0 0 0 0 0 0 3 0 0 0 13 16 16 23 19 23 19 23 13 16 23 26 26 32 29 29 39 39 42 42 45 45 39 45 48 48 42 42
0 0 0 0 0 0 0 0 0 3 3 3 3 6 0 13 19 23 23 16 19 19 23 19 23 19 26 32 32 29 32 39 32 35 39 48 48 39 42 48 45 42 42 35
0 0 0 0 0 0 0 0 0 0 3 6 6 6 16 13 13 13 16 16 19 16 19 23 23 26 29 35 35 39 39 42 45 42 42 48 42 48 45 42 48 42 35 35
0 0 0 0 0 0 0 0 0 10 10 10 10 10 13 13 10 10 6 6 6 16 19 19 19 19 29 29 29 35 35 39 42 42 42 42 42 48 42 42 42 35 35 35
0 0 0 0 0 0 0 0 0 6 10 10 13 10 10 6 6 10 6 10 6 10 10 16 16 13 19 19 23 29 29 35 39 39 39 39 42 42 35 35 35 32 32 32
0 0 0 0 0 0 3 3 3 3 3 10 6 13 13 13 13 6 6 3 10 10 13 16 19 16 19 23 23 23 23 29 35 39 39 39 42 42 35 35 32 32 32 32
0 0 0 0 0 0 0 13 6 0 0 6 6 6 6 13 13 6 3 6 10 13 13 16 16 16 10 16 23 23 19 23 26 32 35 35 39 39 39 35 29 29 29 29
0 0 0 0 0 0 0 0 0 0 6 6 6 10 10 10 10 6 10 6 16 16 10 6 10 10 6 3 16 19 19 23 26 32 32 29 32 35 35 35 32 29 26 26
0 0 0 0 0 0 0 0 3 3 6 13 6 3 3 3 3 6 3 6 10 6 10 10 3 3 6 10 13 19 16 23 23 26 26 26 26 26 26 32 29 29 32 26
0 0 0 0 0 0 0 0 3 3 6 3 0 3 3 3 3 3 6 6 10 10 10 10 10 10 6 6 16 19 16 16 19 19 26 26 23 26 23 23 26 26 26 29
0 0 0 0 0 0 0 3 3 3 3 0 0 0 0 3 3 3 3 3 10 10 10 10 10 10 10 10 16 13 16 19 19 19 23 26 23 26 23 23 19 16 23 23
Height
5908 5910 5911 5912 5913 5914 5915 5915 5916 5916 5916 5915 5915 5915 5914 5914 5914 5914 5914 5914 5913 5913 5912 5912 5911 5911 5910 5909 5909 5908 5907 5907 5906 5906 5905 5904 5904 5903 5902 5902 5900 5899 5898 5898
5907 5909 5910 5911 5911 5912 5913 5914 5915 5915 5915 5915 5914 5914 5914 5913 5913 5914 5914 5914 5914 5913 5913 5912 5912 5911 5911 5910 5909 5909 5908 5908 5907 5907 5906 5905 5905 5904 5903 5902 5901 5900 5899 5898
5905 5908 5908 5909 5909 5911 5912 5913 5914 5914 5913 5914 5914 5914 5913 5913 5913 5913 5913 5914 5914 5913 5913 5913 5913 5912 5912 5911 5910 5909 5909 5908 5908 5907 5907 5906 5905 5904 5904 5902 5901 5900 5899 5898
5903 5905 5905 5907 5908 5909 5910 5911 5912 5912 5913 5912 5913 5913 5913 5912 5912 5912 5912 5912 5913 5913 5913 5913 5913 5913 5912 5911 5911 5910 5909 5909 5908 5907 5907 5906 5905 5905 5904 5903 5902 5901 5899 5898
5900 5902 5903 5904 5907 5907 5908 5909 5910 5911 5911 5911 5911 5911 5912 5911 5911 5911 5911 5911 5912 5913 5913 5913 5912 5912 5912 5912 5911 5910 5909 5909 5908 5907 5907 5906 5905 5904 5903 5902 5901 5900 5899 5898
5898 5900 5901 5902 5904 5905 5906 5907 5907 5908 5909 5909 5910 5910 5910 5910 5909 5909 5909 5910 5910 5911 5912 5912 5912 5912 5911 5911 5910 5910 5909 5908 5908 5907 5906 5905 5904 5903 5902 5901 5900 5899 5898 5897
5895 5897 5898 5899 5901 5903 5904 5905 5906 5906 5907 5908 5908 5907 5909 5909 5908 5908 5907 5908 5908 5909 5910 5910 5910 5910 5910 5910 5909 5908 5908 5908 5907 5906 5905 5904 5903 5902 5901 5900 5899 5898 5897 5896
5891 5894 5895 5896 5898 5899 5901 5902 5904 5904 5904 5905 5906 5905 5907 5906 5906 5906 5906 5906 5907 5907 5908 5909 5909 5909 5909 5908 5907 5907 5907 5906 5905 5904 5903 5902 5901 5901 5900 5899 5898 5897 5896 5895
5888 5891 5893 5894 5895 5897 5898 5899 5900 5901 5901 5902 5902 5903 5903 5903 5904 5904 5904 5904 5904 5905 5906 5907 5907 5907 5907 5907 5906 5905 5905 5904 5903 5902 5901 5900 5900 5899 5898 5897 5896 5895 5894 5893
5884 5887 5889 5891 5892 5893 5895 5896 5897 5898 5898 5899 5899 5899 5900 5901 5901 5901 5901 5901 5902 5903 5904 5904 5904 5905 5904 5904 5903 5903 5902 5902 5901 5900 5899 5898 5897 5896 5896 5895 5894 5893 5891 5890
5879 5882 5884 5886 5888 5889 5891 5893 5893 5894 5895 5896 5895 5898 5898 5898 5898 5898 5898 5898 5899 5899 5900 5900 5901 5901 5901 5901 5900 5900 5900 5899 5898 5897 5896 5895 5894 5893 5893 5892 5891 5890 5889 5887
5874 5877 5879 5881 5884 5886 5887 5887 5888 5890 5891 5891 5892 5896 5894 5894 5894 5894 5895 5895 5895 5896 5896 5897 5897 5897 5897 5897 5897 5896 5896 5896 5895 5894 5892 5891 5890 5890 5889 5888 5887 5886 5885 5884
5869 5872 5874 5877 5880 5881 5882 5883 5884 5885 5886 5887 5887 5891 5889 5890 5890 5890 5891 5892 5892 5892 5893 5893 5893 5893 5893 5893 5893 5893 5892 5892 5891 5890 5888 5887 5886 5886 5885 5884 5883 5882 5881 5880
5864 5866 5869 5872 5874 5875 5876 5878 5879 5880 5881 5882 5883 5885 5885 5885 5886 5886 5887 5887 5887 5888 5888 5889 5889 5889 5889 5889 5889 5888 5888 5887 5887 5886 5884 5883 5882 5882 5881 5880 5879 5878 5877 5875
5858 5860 5862 5865 5867 5869 5870 5872 5874 5875 5875 5877 5878 5879 5880 5881 5881 5882 5882 5882 5882 5883 5883 5883 5884 5885 5884 5884 5884 5884 5883 5882 5881 5880 5880 5879 5878 5877 5876 5875 5874 5873 5871 5870
5852 5854 5856 5859 5860 5862 5864 5866 5867 5869 5870 5870 5872 5873 5874 5875 5875 5876 5876 5876 5876 5877 5877 5878 5878 5878 5878 5878 5878 5878 5877 5877 5876 5875 5874 5873 5872 5871 5870 5869 5868 5867 5866 5864
5845 5848 5850 5852 5853 5855 5857 5859 5860 5861 5862 5864 5865 5867 5867 5868 5869 5869 5869 5870 5870 5870 5870 5870 5870 5871 5871 5871 5870 5870 5870 5870 5869 5868 5867 5866 5866 5865 5864 5863 5861 5860 5859 5858
5839 5841 5842 5844 5847 5848 5852 5851 5852 5853 5855 5856 5858 5858 5859 5860 5861 5862 5862 5863 5863 5863 5863 5863 5863 5863 5863 5863 5862 5862 5862 5862 5862 5861 5860 5859 5859 5858 5857 5856 5855 5854 5852 5851
5832 5834 5835 5837 5839 5841 5843 5844 5845 5845 5847 5849 5849 5850 5851 5851 5852 5853 5854 5854 5855 5855 5854 5855 5856 5855 5855 5855 5854 5854 5854 5854 5854 5853 5853 5852 5851 5850 5850 5849 5848 5846 5845 5844
5825 5826 5829 5830 5831 5832 5837 5837 5837 5838 5839 5841 5841 5842 5843 5844 5844 5845 5846 5846 5846 5847 5847 5847 5847 5847 5847 5846 5846 5846 5846 5846 5846 5845 5845 5844 5843 5842 5842 5841 5840 5838 5837 5836
5817 5819 5820 5821 5822 5824 5827 5829 5830 5831 5832 5832 5832 5833 5834 5835 5836 5836 5837 5837 5837 5837 5837 5837 5837 5838 5838 5838 5837 5837 5837 5837 5837 5837 5836 5835 5835 5833 5833 5832 5831 5829 5828 5827
5809 5811 5812 5813 5814 5818 5818 5819 5821 5821 5822 5823 5824 5824 5825 5826 5826 5826 5827 5827 5828 5828 5828 5827 5827 5828 5829 5829 5828 5828 5828 5828 5828 5827 5827 5826 5825 5824 5823 5822 5821 5820 5819 5817
5801 5803 5804 5806 5808 5808 5809 5810 5811 5812 5813 5814 5815 5815 5816 5816 5816 5817 5817 5817 5817 5817 5818 5818 5818 5818 5819 5819 5818 5819 5818 5818 5818 5818 5817 5816 5816 5815 5813 5812 5811 5810 5808 5807
5793 5794 5796 5796 5797 5799 5800 5800 5801 5802 5803 5803 5804 5805 5805 5805 5806 5806 5806 5807 5807 5807 5807 5807 5808 5809 5809 5809 5809 5809 5808 5807 5807 5807 5807 5806 5805 5804 5803 5802 5800 5799 5798 5797
5786 5787 5787 5787 5789 5789 5790 5790 5791 5792 5793 5793 5793 5794 5794 5794 5795 5795 5795 5796 5796 5796 5797 5796 5797 5798 5798 5798 5798 5798 5797 5797 5797 5796 5796 5795 5794 5793 5792 5791 5790 5789 5788 5787
5777 5778 5778 5779 5780 5780 5781 5781 5782 5782 5782 5783 5783 5783 5783 5783 5784 5784 5784 5785 5785 5785 5786 5785 5786 5786 5786 5787 5787 5786 5785 5785 5785 5785 5784 5783 5783 5782 5781 5780 5779 5777 5777 5776
Wind_Speed
12 11 11 10 9 7 6 4 3 4 3 2 1 2 4 5 5 6 6 6 6 6 6 6 7 8 8 8 7 7 7 7 8 8 8 8 8 8 8 8 8 7 6 5
12 11 11 11 10 7 6 5 4 3 1 0 0 0 2 3 3 3 3 4 4 4 5 5 6 6 7 7 7 6 6 7 7 7 7 8 8 8 8 8 8 7 6 6
13 12 12 11 10 8 6 5 4 3 3 4 4 3 2 2 2 2 2 3 3 3 4 4 4 5 5 6 6 6 6 6 6 6 7 7 7 7 8 7 7 8 6 5
15 14 12 12 10 9 7 6 5 5 5 6 6 5 3 3 3 2 1 2 1 2 3 3 3 4 4 4 5 5 5 5 5 5 6 6 6 6 7 7 7 7 6 5
15 14 12 12 11 10 9 8 9 8 7 7 8 6 3 4 5 4 3 2 1 2 2 2 3 3 3 3 4 4 4 4 4 5 5 5 5 6 6 7 7 6 5 5
14 15 14 12 10 10 10 9 10 10 8 7 7 7 5 4 4 3 2 1 1 1 0 1 1 2 2 3 3 4 4 4 4 4 4 4 5 5 6 6 6 5 6 5
15 15 14 14 13 11 11 11 10 10 10 7 7 8 6 4 3 3 3 3 2 2 2 2 2 3 3 3 4 4 4 5 5 5 5 4 5 5 5 6 6 6 6 6
15 15 15 14 13 11 12 12 11 11 10 8 8 9 7 6 5 4 4 3 3 3 4 4 4 4 4 5 4 5 5 5 6 5 5 5 5 6 6 6 6 6 7 7
16 15 15 15 14 13 14 13 13 13 13 12 11 11 9 7 5 4 4 4 4 5 6 6 6 6 6 6 6 6 6 6 7 7 7 7 6 6 6 7 7 7 7 7
18 17 16 16 17 16 15 14 15 17 15 13 12 10 9 9 8 7 6 6 6 7 8 8 8 8 8 8 8 8 8 8 7 7 8 8 7 7 7 7 8 8 8 9
19 19 18 18 18 17 17 17 17 18 18 16 14 12 10 10 10 9 8 8 9 8 9 10 10 10 10 11 10 10 10 9 9 9 9 9 8 8 8 9 9 10 10 11
20 21 20 19 18 17 17 18 18 18 19 18 18 16 15 13 12 12 12 11 11 11 11 11 11 11 12 11 11 11 11 11 11 11 11 11 11 10 10 11 11 12 12 12
22 23 21 19 20 20 19 20 21 21 20 20 20 19 18 17 15 14 14 13 13 13 12 12 13 13 13 13 13 13 12 12 12 12 12 13 13 12 12 13 13 13 14 14
23 24 23 22 21 22 22 21 22 22 23 23 24 22 20 20 19 18 18 18 17 16 15 15 15 15 15 15 15 15 15 15 15 14 15 15 15 15 14 14 15 15 16 16
25 25 24 24 24 24 25 24 24 24 24 25 25 24 22 22 23 22 21 21 20 19 18 18 19 18 19 18 18 18 19 18 18 17 17 17 17 18 18 18 18 17 17 18
25 25 24 23 24 25 26 26 27 27 28 28 27 26 24 22 23 24 24 24 24 23 22 22 22 22 21 22 22 20 20 20 20 19 18 18 19 19 20 21 21 19 19 20
27 26 26 24 25 26 27 26 27 28 28 29 29 28 27 26 25 26 26 27 26 24 24 24 24 24 24 24 24 23 23 22 22 22 21 21 21 21 22 22 22 21 21 22
27 27 27 27 27 28 27 28 28 29 29 29 29 29 29 29 29 29 29 29 28 26 25 25 25 25 25 26 25 25 25 24 24 24 23 22 22 23 23 23 23 23 23 24
28 28 28 28 28 29 28 29 29 30 30 30 30 31 31 30 30 30 30 30 29 28 27 27 26 27 27 27 27 26 26 25 24 24 25 25 25 25 25 25 25 24 25 25
30 30 30 30 30 30 29 29 30 31 32 32 32 32 32 32 33 32 32 32 32 31 30 29 28 28 28 27 27 26 27 27 26 26 27 27 27 27 26 26 27 28 28 28
31 31 31 31 32 32 30 30 30 32 33 33 33 32 33 33 34 33 33 33 32 32 33 32 30 29 29 28 28 27 28 28 28 29 28 28 28 28 28 28 29 29 30 30
29 30 31 31 33 33 30 31 32 33 33 33 32 33 34 34 34 34 35 35 35 34 33 32 32 31 30 30 30 30 30 30 30 30 30 30 30 30 30 31 31 31 31 32
29 30 31 31 32 32 31 31 32 33 33 32 32 32 34 35 36 35 37 37 36 35 34 35 34 33 32 32 32 32 31 31 32 32 32 32 32 32 32 33 33 33 33 32
29 29 31 32 32 32 32 32 32 32 32 32 33 34 34 35 37 37 36 37 37 35 35 35 34 34 33 33 34 34 33 33 34 34 34 34 34 34 34 34 34 34 33 33
30 30 32 33 32 32 32 32 32 33 34 34 33 35 36 36 36 37 37 37 37 37 35 36 36 35 34 34 34 35 34 34 34 34 35 36 36 36 35 35 35 34 34 34
30 31 32 33 33 33 33 33 33 34 34 35 35 34 35 36 35 35 36 36 36 37 37 36 37 37 36 36 35 35 34 34 34 34 35 35 34 34 34 34 34 35 34 34
Wind_Direction
193 186 179 174 167 165 159 153 125 92 81 38 30 1 23 39 33 28 27 32 35 40 41 43 47 50 53 58 61 58 58 59 60 61 59 59 55 52 46 42 41 40 44 46
197 187 180 178 175 180 186 182 161 145 176 257 301 352 352 2 2 11 20 36 42 45 38 44 40 42 49 53 53 53 57 57 56 57 57 55 52 49 45 41 36 34 37 43
203 193 194 188 183 190 193 199 192 209 222 236 245 264 270 279 293 310 351 27 43 49 42 48 42 39 42 47 48 46 48 47 47 47 49 49 48 45 42 38 31 30 33 34
205 204 209 204 204 206 206 214 222 243 251 252 248 252 257 255 248 261 289 331 13 51 41 55 46 36 32 35 39 39 37 36 36 33 34 37 35 30 27 24 24 22 28 29
211 209 213 206 206 214 217 226 229 238 247 256 256 256 285 242 247 254 276 310 18 49 49 60 55 46 34 23 22 23 20 18 19 16 13 17 15 13 13 13 11 11 15 10
217 216 213 207 210 220 227 232 236 234 239 255 259 268 280 254 251 269 290 301 299 335 353 15 22 6 3 1 359 360 354 352 352 352 353 356 355 353 354 357 358 357 357 351
221 222 219 209 210 216 230 235 237 235 238 247 256 260 273 272 282 274 278 281 284 315 303 315 316 330 327 320 325 331 334 331 329 328 326 330 337 335 337 339 343 342 340 337
221 219 218 216 217 220 228 237 235 240 241 246 255 263 270 272 282 279 272 277 289 299 296 308 314 309 304 301 301 305 310 317 318 315 313 311 313 318 321 323 324 326 328 330
224 224 225 223 223 227 231 236 239 246 244 251 256 261 259 253 263 271 264 256 270 280 286 288 295 296 291 288 288 291 295 298 305 304 303 304 301 302 305 307 309 310 317 320
231 227 224 223 225 225 233 236 241 242 248 252 256 250 256 244 247 265 253 249 269 277 282 287 287 288 289 287 286 288 287 286 293 300 305 301 293 292 295 299 301 304 306 309
234 235 229 223 221 229 235 237 242 242 244 252 255 258 265 265 257 261 258 259 267 268 274 276 282 286 289 293 289 290 282 282 286 291 297 295 288 288 291 294 296 297 298 300
235 238 236 229 228 232 237 238 241 243 244 251 258 264 267 266 259 253 253 262 264 268 268 273 280 286 289 294 293 289 286 285 286 287 291 290 285 287 289 291 293 294 294 295
239 239 238 232 229 231 235 237 239 243 245 249 255 260 264 265 265 262 260 265 269 274 272 273 277 281 287 292 294 291 290 287 286 286 290 293 289 287 289 290 291 291 291 291
242 241 240 236 233 232 235 239 243 245 245 248 253 257 261 264 266 268 270 268 270 275 278 277 277 278 283 288 289 290 289 286 284 283 286 291 291 290 288 288 290 289 289 290
241 243 242 240 237 237 238 240 242 246 249 250 254 257 259 262 265 267 270 268 266 272 274 272 271 275 280 282 283 282 284 285 285 285 286 287 287 288 288 289 291 291 290 289
240 243 243 242 241 242 244 244 244 246 249 253 255 256 259 262 261 263 267 270 270 274 272 269 270 272 276 279 279 277 278 279 281 283 283 283 285 286 287 288 289 288 290 291
242 245 246 244 242 243 244 246 246 246 247 250 254 256 258 260 261 263 265 269 274 274 272 271 271 273 276 278 275 275 276 276 278 279 281 282 283 283 285 287 287 288 289 289
244 246 248 247 245 244 245 247 251 250 249 251 254 255 258 259 260 262 264 268 271 268 269 269 271 273 275 276 275 275 274 275 277 278 280 280 281 281 282 284 285 285 287 288
246 248 249 248 248 247 247 249 252 252 251 252 253 254 256 259 260 261 264 268 270 270 270 269 270 271 273 274 275 274 273 274 276 278 280 281 282 283 282 282 283 284 285 286
246 248 250 250 250 250 250 251 254 255 254 252 252 253 257 260 261 262 264 267 269 268 268 268 269 269 269 271 271 272 273 275 276 277 279 279 281 281 280 281 282 282 282 283
245 248 250 251 253 254 254 254 254 256 258 257 257 257 258 259 262 263 263 264 266 267 268 268 268 267 267 269 271 272 272 274 275 275 276 277 278 278 279 280 282 283 282 282
248 250 250 252 254 256 256 257 256 258 259 260 260 261 261 262 263 264 264 265 267 268 267 267 268 267 267 269 271 272 273 274 275 275 275 275 277 277 278 279 280 281 282 283
249 251 253 255 257 259 258 258 259 259 260 261 262 263 264 264 264 265 265 266 267 268 267 267 267 267 268 267 269 271 272 272 273 274 275 275 276 276 276 277 279 280 281 281
251 253 255 257 259 261 261 260 261 262 262 264 265 265 266 266 264 264 265 265 266 267 267 266 267 267 266 267 270 272 272 273 273 273 273 274 274 274 274 276 277 278 279 280
252 255 257 259 261 262 261 261 264 265 265 266 266 266 266 266 265 264 264 265 265 264 266 268 268 267 267 269 270 270 271 272 273 273 274 275 275 274 274 275 276 277 278 279
253 256 258 260 262 263 264 264 266 266 266 266 267 266 266 268 267 265 264 264 265 265 265 267 268 268 269 269 270 270 271 271 272 273 275 275 275 275 275 275 275 276 276 277